Regional Weather Roundup
Issued by NWS Spokane, WA

Home | Current Version | Previous Version | Text Only | Print | Product List | Glossary On
Versions: 1 2 3 4 5 6 7 8 9 10 11 12 13 14 15 16 17 18 19 20 21 22 23 24 25 26 27 28 29 30 31 32 33 34 35 36 37 38 39 40 41 42 43 44 45 46 47 48 49 50
000
NZUS01 KOTX 071725
RWROTX

Eastern Washington/Northern Idaho Roundup
National Weather Service, Spokane WA
900 AM PST WED DEC 07 2016

Note: "fair" indicated few or no clouds below 12,000 feet with no
significant weather and/or obstructions to visibility.

...Northeast Washington and Northern Idaho Panhandle...

CITY           SKY/WX    TMP DP  RH WIND       PRES   REMARKS
Spokane Intl   PTSUNNY   21  16  81 CALM      30.39R
Spokane Downto CLOUDY    25  14  63 E8        30.43R WCI  16
Coeur d Alene  CLOUDY    21  11  65 N12       30.41R WCI   9
Deer Park      CLOUDY    23  12  62 NE7       30.41R WCI  15
Sandpoint      MOSUNNY   21   5  49 N13       30.45R WCI   9
Bonners Ferry  CLOUDY    18   1  49 E6        30.46R WCI   9

...Southeast Washington and southern Idaho Panhandle...

CITY           SKY/WX    TMP DP  RH WIND       PRES   REMARKS
Walla Walla    CLOUDY    23  17  78 CALM      30.45R
Pullman/Moscow CLOUDY    20  17  88 SE3       30.39R
Lewiston       CLOUDY    22  17  81 CALM      30.46R
Grangeville    CLOUDY    16  14  93 CALM      30.33R

...Columbia Basin...

CITY           SKY/WX    TMP DP  RH WIND       PRES   REMARKS
Ephrata        CLOUDY    21   6  52 N14       30.47R WCI   8
Moses Lake     CLOUDY    22  11  62 N7        30.48R WCI  13
Pasco          CLOUDY    25  22  88 CALM      30.53R
Richland       CLOUDY    27  26  93 CALM      30.54R
Hermiston      CLOUDY    24  18  77 E7        30.49R WCI  16
Pendleton      PTSUNNY   17  12  80 SE5       30.43R WCI  10

...East Slopes Cascades...

CITY           SKY/WX    TMP DP  RH WIND       PRES   REMARKS
The Dalles     PTSUNNY   28  22  78 E6        30.50R WCI  22
Yakima         CLOUDY    30  21  69 CALM      30.46R
Ellensburg     CLOUDY    26  12  55 CALM      30.41R
Stampede Pass  CLOUDY    14  12  92 VRB5      30.22S WCI   6
Wenatchee      CLOUDY    24  10  55 W3        30.48R
Omak           CLEAR     19   2  47 N15G21    30.54R WCI   5
Sunnyside      CLOUDY    26  19  75 CALM      30.49R

...Southern British Columbia...

CITY           SKY/WX    TMP DP  RH WIND       PRES   REMARKS
Penticton      MOCLDY    18   1  49 NW9       30.62R WCI   6
Castlegar      CLOUDY    25  12  58 NW7       30.45R WCI  17
Cranbrook      MOCLDY     5  -4  66 E5        30.46R WCI  -4
Osoyoos          N/A     19   7  58 NW8G17      N/A  WCI   9
Creston          N/A     19   1  45 NE9         N/A  WCI   9

...Western Montana...

CITY           SKY/WX    TMP DP  RH WIND       PRES   REMARKS
Kalispell      CLOUDY     7  -4  60 N10       30.45R WCI  -8
Libby            N/A     14   1  57 CALM      30.46R
Missoula       CLOUDY    12   0  58 E16       30.42R WCI  -5

...Neighboring Cities...

CITY           SKY/WX    TMP DP  RH WIND       PRES   REMARKS
Seattle        PTCLDY    30  24  78 N12       30.41S WCI  20
Portland       MOSUNNY   31  28  89 CALM      30.38S
Boise          PTSUNNY   19  14  81 SE5       30.37R WCI  12
Great Falls    MOSUNNY   -1  -8  72 CALM      30.47R
Calgary        PTCLDY    -6 -15  65 NW9G17    30.47R WCI -22



USA.gov is the U.S. government's official web portal to all federal, state and local government web resources and services.